This is the latest recevied weather packets stored in our database for station/object KC5TIL-3. If no packets are shown the sender has not sent any weather packets the latest 10 day(s).
| Time | Temp. | Humidity | Pressure | Rain* | Wind** | Luminosity | Snow |
|---|---|---|---|---|---|---|---|
| 1787438762 | 39.44° C | 10% | 1010.8 hPa | 0 mm | 4.92 m/s, 128° | - | - |
| 1787438461 | 40° C | 10% | 1010.8 hPa | 0 mm | 3.58 m/s, 135° | - | - |
| 1787438163 | 39.44° C | 10% | 1010.8 hPa | 0 mm | 1.79 m/s, 151° | - | - |
| 1787437865 | 39.44° C | 10% | 1010.8 hPa | 0 mm | 2.68 m/s, 125° | - | - |
| 1787437563 | 40° C | 10% | 1010.8 hPa | 0 mm | 3.13 m/s, 130° | - | - |
| 1787437265 | 40° C | 10% | 1010.8 hPa | 0 mm | 2.24 m/s, 121° | - | - |
| 1787436962 | 40° C | 10% | 1010.8 hPa | 0 mm | 3.13 m/s, 121° | - | - |
| 1787436661 | 39.44° C | 10% | 1010.8 hPa | 0 mm | 4.02 m/s, 115° | - | - |
| 1787436363 | 40° C | 10% | 1010.8 hPa | 0 mm | 2.68 m/s, 115° | - | - |
| 1787436065 | 39.44° C | 10% | 1010.8 hPa | 0 mm | 3.58 m/s, 117° | - | - |
| 1787435763 | 40° C | 10% | 1010.8 hPa | 0 mm | 3.58 m/s, 119° | - | - |
| 1787435465 | 40° C | 10% | 1010.8 hPa | 0 mm | 2.24 m/s, 125° | - | - |
| 1787435167 | 39.44° C | 10% | 1010.8 hPa | 0 mm | 3.13 m/s, 110° | - | - |
| 1787434866 | 41.11° C | 10% | 1010.8 hPa | 0 mm | 0 m/s | - | - |
| 1787434568 | 40.56° C | 10% | 1010.8 hPa | 0 mm | 3.13 m/s, 130° | - | - |
| 1787434270 | 40° C | 10% | 1011.8 hPa | 0 mm | 1.79 m/s, 48° | - | - |
| 1787433968 | 40.56° C | 10% | 1011.8 hPa | 0 mm | 1.79 m/s, 154° | - | - |
| 1787433656 | 40° C | 10% | 1011.8 hPa | 0 mm | 2.68 m/s, 198° | - | - |
| 1787433354 | 40.56° C | 10% | 1011.8 hPa | 0 mm | 3.13 m/s, 198° | - | - |
| 1787433052 | 41.11° C | 10% | 1011.8 hPa | 0 mm | 3.13 m/s, 138° | - | - |
| 1787432749 | 41.11° C | 10% | 1011.8 hPa | 0 mm | 1.79 m/s, 239° | - | - |
| 1787432441 | 40° C | 10% | 1011.8 hPa | 0 mm | 1.34 m/s, 173° | - | - |
| 1787432140 | 40.56° C | 10% | 1011.8 hPa | 0 mm | 3.13 m/s, 204° | - | - |
| 1787431823 | 41.11° C | 10% | 1011.8 hPa | 0 mm | 1.34 m/s, 225° | - | - |
| 1787431525 | 40° C | 10% | 1011.8 hPa | 0 mm | 1.79 m/s, 152° | - | - |
* Rain latest hour (hover to see other rain measurements)
** Current wind speed in m/s (hover to see current wind gust speed)